Location: Amon Carter Post Office
(32.8281°N, 97.0484°W)
Time: 15:19:17
(UTC+00:00)

H-2A R/B - Pass Details

Date: 06 July 2022
Orbit: 576 x 652 km, 98.5° (Epoch: 14 August)

Event Time Altitude Azimuth Distance (km) Brightness Sun altitude
Rises 03:57:38 0° 347° (NNW) 2,952 6.6 -23.3°
Reaches altitude 10° 04:01:02 10° 319° (NW) 2,049 5.8 -23.7°
Maximum altitude 04:02:56 13° 294° (WNW) 1,877 5.3 -23.9°
Drops below altitude 10° 04:04:51 10° 268° (W) 2,052 5.1 -24.2°
Sets 04:08:16 0° 240° (WSW) 2,961 5.6 -24.6°
